User: anonymous   Login
Location: Albany
(35.0000°S, 118.0000°E)
Time: 20:49:56
(UTC-04:00)
Language:

Radarsat Rocket - Orbit

View from above orbital plane
View from above orbital plane
View from above satellite
View from above satellite

Ground track
Ground track

The orbit data is extracted from the following two-line orbital elements,

1 23711U 95059B   17203.55035628 -.00000027 +00000-0 +38745-4 0  9990
2 23711 100.5624 193.3375 0367372 238.7570 271.9061 13.12694697040250
Epoch (UTC): 22 July 2017 13:12:30
Eccentricity: 0.0367372
inclination: 100.5624°
perigee height: 934 km
apogee height: 1491 km
right ascension of ascending node: 193.3375°
argument of perigee: 238.7570°
revolutions per day: 13.12694697
mean anomaly at epoch: 271.9061°
orbit number at epoch: 4025

The dashed part of the orbit path shows where the satellite is in the earth's shadow,  

DLR